Regional Weather Roundup
Issued by NWS

Home | Current Version | Previous Version | Graphics & Text | Print | Product List | Glossary On
Versions: 1 2 3 4 5 6 7 8 9 10 11 12 13 14 15 16 17 18 19 20 21 22 23 24 25 26 27 28 29 30 31 32 33 34 35 36 37 38 39 40 41 42 43 44 45 46 47 48 49 50
000
ASUS43 KTOP 200259
RWRKS

WEATHER ROUNDUP FOR KANSAS
NATIONAL WEATHER SERVICE GOODLAND KS
900 PM CST FRI DEC 19 2014

NOTE:  "FAIR" INDICATES FEW OR NO CLOUDS BELOW 12,000 FEET WITH NO
SIGNIFICANT WEATHER AND/OR OBSTRUCTIONS TO VISIBILITY.

KSZ001>006-013>018-027>032-041>047-200400-
NORTHWEST KANSAS

CITY           SKY/WX    TMP DP  RH WIND       PRES   REMARKS
GOODLAND       CLEAR     29  23  78 SW9       30.05F
HAYS           CLEAR     36  27  69 SW14      30.08F WCI  27
HILL CITY      CLEAR     34  26  72 W6        30.07R
RUSSELL        CLEAR     34  32  92 S14       30.08S WCI  25
$$

KSZ061>065-074>080-084>089-200400-
SOUTHWEST KANSAS

CITY           SKY/WX    TMP DP  RH WIND       PRES   REMARKS
DODGE CITY     CLEAR     32  29  88 SW12      30.11S FOG     WCI  23
ELKHART          N/A    N/A N/A N/A MISG        N/A
GARDEN CITY    CLEAR     29  28  96 S7        30.10S
GREAT BEND     CLEAR     34  28  80 SW10      30.12F WCI  26
LIBERAL        CLEAR     32  27  80 S7        30.12F
$$

KSZ066>073-081>083-090>101-200400-
SOUTHEAST KANSAS

CITY           SKY/WX    TMP DP  RH WIND       PRES   REMARKS
CHANUTE        FOG       34  34 100 NW3       30.21S VSB 1/4
COFFEYVILLE    CLOUDY    37  36  96 W6        30.22F FOG
HUTCHINSON     CLOUDY    37  34  89 S3        30.15S
MEDICINE LODGE   N/A     37  35  92 S8        30.16S
NEWTON         CLOUDY    34  28  80 S8        30.17S
PARSONS        FOG       36  36 100 NW5       30.22F VSB 1/2
WICHITA INTL   CLOUDY    38  33  82 S8        30.18R
WICHITA JABRA  CLOUDY    36  33  89 S7        30.18R
WICHITA MCCONL CLOUDY    36  33  89 S6        30.19R
WINFIELD       CLOUDY    37  34  89 S3        30.21S
$$

KSZ007>012-019>026-033>040-048>060-102>105-200400-
NORTHEAST KANSAS

CITY           SKY/WX    TMP DP  RH WIND       PRES   REMARKS
CONCORDIA      PTCLDY    31  30  96 S7        30.11S FOG
EMPORIA        CLOUDY    32  29  88 S5        30.19S
LAWRENCE       CLOUDY    33  28  81 W5        30.21F
MANHATTAN      CLOUDY    34  31  88 S5        30.17F
OLATHE IND     LGT SNOW  32  32 100 SW5       30.20F FOG
OLATHE EXE     CLOUDY    33  33 100 SW3       30.20S FOG
SALINA         CLEAR     32  29  88 S6        30.14S FOG
TOPEKA BILLARD CLOUDY    33  28  81 S5        30.21F
TOPEKA FORBES  CLOUDY    33  28  81 SW6       30.20S
$$


USA.gov is the U.S. government's official web portal to all federal, state and local government web resources and services.